Location: Killam
(52.7910°N, 111.8608°W)
Time: 21:23:52
(UTC+00:00)

Vanguard 2 Rocket - Pass Details

Date: 24 February 2026
Orbit: 553 x 3286 km, 32.9° (Epoch: 8 March)

Event Time Altitude Azimuth Distance (km) Brightness Sun altitude
Rises 17:34:06 0° 218° (SW) 6,933 11.6 22.3°
Reaches altitude 10° 17:39:26 10° 209° (SSW) 6,108 11.6 22.8°
Maximum altitude 17:55:00 31° 158° (SSE) 4,629 13.0 24.0°
Drops below altitude 10° 18:08:59 10° 106° (ESE) 5,506 11.6 24.9°
Sets 18:13:25 0° 96° (E) 6,187 11.5 25.2°
